Location: Caseificio
(44.7500°N, 11.0500°E)
Time: 16:23:27
(UTC+00:00)

Cosmos 1610 Rocket - Pass Details

Date: 26 May 2022
Orbit: 952 x 1003 km, 82.9° (Epoch: 06 July)

Event Time Altitude Azimuth Distance (km) Brightness Sun altitude
Rises 01:39:34 0° 350° (N) 3,656 8.2 -16.1°
Reaches altitude 10° 01:42:05 10° 350° (N) 2,701 7.4 -15.9°
Maximum altitude 01:48:15 82° 265° (W) 969 4.4 -15.2°
Enters shadow 01:54:08 11° 178° (S) 2,591 6.3 -14.6°
